www.pogodaiklimat.ru

Погода и климат >> Архив погоды >> Таиланд >> Накхонпатхом


ПОГОДА в Накхонпатхоме

  • Прогноз погоды в Накхонпатхоме
  • Монитор погоды в Накхонпатхоме

АРХИВ ПОГОДЫ в Накхонпатхоме

Время (UTC), дата Ветер
(напр.,м/с)
 
Видим.   Явления Облачность Т
(С)
Тd
(С)
f
(%)
Тe
(С)
Тes
(С)
Комфортность P
(гПа)
Po
(гПа)
Тmin
(С)
Tmax
(С)
R
(мм)
R24
(мм)
S
(см)
00 12.08 штиль 0 5000 м слаб. дождь 9/6 600 м
[Cb calv Ac As]
+25.4 +25.0 98 +36 +37 очень
душно
1005.7 1004.6 +24.7 0.0
03 12.08 штиль 0 10 км {дождь} 9/5 600 м
[Cu Sc Ac lent Cs]
+31.0 +25.5 73 +46 +52 опасность
перегрева
1008.4 1007.3 0.0
06 12.08 штиль 0 10 км {дождь} 10/5 600 м
[Sc As op]
+32.0 +24.1 63 +44 +47 опасность
перегрева
1006.8 1005.7 0.0
09 12.08 штиль 0 10 км 9/3 600 м
[Cb cap Ac As]
+32.4 +24.7 64 +45 +48 опасность
перегрева
1004.6 1003.5
12 12.08 штиль 0 10 км {дождь} 10/5 600 м
[Cb cap As op]
+28.1 +26.1 89 +42 +42 опасность
перегрева
1006.2 1005.1 +33.4 0.5
15 12.08 штиль 0 8000 м дымка {дождь} 9/5 600 м
[Sc Ac As]
+27.2 +26.1 94 +41 +41 опасность
перегрева
1007.9 1006.8 0.0
18 12.08 штиль 0 10 км {дождь} 8/5 600 м
[Sc Ac As]
+26.2 +25.2 94 +38 +38 очень
душно
1007.7 1006.6 0.5
21 12.08 штиль 0 10 км 8/5 600 м
[Sc Ac As]
+25.6 +24.9 96 +36 +36 очень
душно
1006.8 1005.7
00 13.08 штиль 0 10 км 10/5 600 м
[Cb cap As op]
+26.0 +25.7 98 +38 +38 очень
душно
1008.4 1007.3 +25.2
03 13.08 ЮЗ 2 10 км 9/8 600 м
[Cb calv Ac As]
+31.2 +25.3 71 +45 +47 опасность
перегрева
1009.9 1008.8
06 13.08 З 4 10 км 6/6 600 м
[Cb cap Ac trans]
+33.2 +25.2 63 +47 +53 опасность
перегрева
1008.5 1007.4
09 13.08 штиль 0 10 км 9/5 600 м
[Cb cap Ac As]
+32.6 +24.7 63 +46 +48 опасность
перегрева
1006.4 1005.4
12 13.08 штиль 0 10 км 10/5 600 м
[Cb cap As op]
+30.3 +24.7 72 +43 +43 опасность
перегрева
1007.6 1006.5 +34.1
15 13.08 З 2 10 км 10/5 600 м
[Sc As op]
+28.1 +24.4 80 +39 +39 очень
душно
1010.3 1009.2
18 13.08 штиль 0 5000 м слаб. дождь 10/6 600 м
[Sc As op]
+27.5 +25.5 89 +40 +40 очень
душно
1009.6 1008.5 0.2
21 13.08 штиль 0 8000 м дымка {дождь} 9/5 600 м
[Sc Cs]
+26.4 +25.0 92 +38 +38 очень
душно
1008.2 1007.1 0.0
00 14.08 штиль 0 10 км {дождь} 10/6 600 м
[Cb calv As op]
+26.3 +25.1 93 +38 +38 очень
душно
1008.7 1007.6 +25.8 0.2
03 14.08 З 2 10 км 9/5 600 м
[Sc Ac As]
+30.1 +24.8 73 +43 +46 опасность
перегрева
1010.4 1009.3
06 14.08 штиль 0 10 км 10/3 600 м
[Cu med, cong As op]
+32.1 +25.6 69 +47 +51 опасность
перегрева
1009.0 1007.9
09 14.08 З 2 10 км 8/1 600 м
[Cu hum Ac As Cs]
+33.8 +24.8 59 +47 +51 опасность
перегрева
1006.2 1005.1
12 14.08 З 2 10 км 9/3 600 м
[Cu med, cong Ac As Cs]
+30.8 +24.7 70 +44 +44 опасность
перегрева
1007.2 1006.1 +34.4
15 14.08 штиль 0 10 км 9/3 600 м
[Cu med, cong Ac As Cs]
+27.8 +24.0 80 +39 +39 очень
душно
1010.1 1009.0
18 14.08 штиль 0 10 км 10/5 600 м
[Sc As op]
+27.0 +24.8 88 +39 +39 очень
душно
1009.1 1008.0
21 14.08 штиль 0 10 км 8/0
[Ac As Cs]
+26.2 +24.2 89 +36 +36 очень
душно
1007.5 1006.4
00 15.08 ЮЗ 2 10 км 6/5 600 м
[Sc Ac As Ci sp]
+25.8 +23.9 89 +35 +36 очень
душно
1008.0 1006.9 +24.6
03 15.08 штиль 0 10 км 9/5 600 м
[Sc Ac As]
+30.5 +25.1 73 +44 +49 опасность
перегрева
1009.4 1008.3
06 15.08 СЗ 4 10 км 6/3 600 м
[Cu med, cong Ac As Cs]
+33.5 +23.9 57 +45 +53 опасность
перегрева
1007.4 1006.3
09 15.08 З 2 10 км 8/3 600 м
[Cu med, cong Ac As Cs]
+35.1 +23.8 52 +46 +50 опасность
перегрева
1004.3 1003.2
12 15.08 штиль 0 10 км 3/3 600 м
[Cb cap Ac lent Ci fib]
+31.0 +25.2 71 +45 +45 опасность
перегрева
1005.0 1003.9 +35.6
15 15.08 штиль 0 10 км 3/0
[Cs]
+28.4 +25.1 82 +41 +41 опасность
перегрева
1007.0 1005.9
18 15.08 ЮЗ 1 10 км 3/0
[Cs]
+27.2 +24.5 85 +38 +38 очень
душно
1006.5 1005.4
21 15.08 штиль 0 10 км 5/0
[Cs]
+26.5 +24.0 86 +37 +37 очень
душно
1005.6 1004.5
00 16.08 штиль 0 10 км 10/5 600 м
[Sc As op]
+26.0 +24.3 90 +36 +36 очень
душно
1006.4 1005.2 +24.8
03 16.08 З 6 10 км 5/1 600 м
[Cu hum Ac lent Cs]
+31.9 +23.7 62 +43 +47 опасность
перегрева
1007.4 1006.3
06 16.08 З 6 10 км 6/3 600 м
[Cb cap Ac lent Cs]
+34.5 +24.6 56 +47 +52 опасность
перегрева
1005.5 1004.5
09 16.08 Ю 4 10 км 9/8 600 м
[Cb cap Ac lent Ci ing]
+35.0 +25.0 56 +48 +49 опасность
перегрева
1003.3 1002.2
12 16.08 штиль 0 10 км 10/5 600 м
[Sc As op]
+29.5 +26.0 81 +44 +44 опасность
перегрева
1004.5 1003.4 +35.5
15 16.08 штиль 0 10 км 10/5 600 м
[Sc As op]
+28.5 +26.0 86 +43 +43 опасность
перегрева
1007.0 1005.9
18 16.08 штиль 0 10 км 10/5 600 м
[Sc As op]
+27.5 +26.1 92 +41 +41 опасность
перегрева
1006.7 1005.6
21 16.08 ЮЗ 1 5000 м слаб. дождь 10/5 600 м
[Cb cap Ac As]
+26.8 +24.9 89 +38 +38 очень
душно
1006.4 1005.3 0.0
00 17.08 штиль 0 10 км {дождь} 10/5 600 м
[Sc As op]
+26.0 +25.3 96 +38 +38 очень
душно
1007.7 1006.6 +25.5 2
03 17.08 З 1 10 км 5/0
[Cs]
+30.5 +25.6 75 +45 +61 опасность
перегрева
1008.7 1007.6
06 17.08 З 2 10 км 8/8 600 м
[Cb cap Ac trans Ci fib]
+33.6 +25.5 63 +48 +53 опасность
перегрева
1007.4 1006.4
09 17.08 штиль 0 10 км осадки на расстоянии 10/10 600 м
[Cb cap]
+33.2 +25.0 62 +47 +47 опасность
перегрева
1005.5 1004.4
12 17.08 З 4 10 км осадки на расстоянии 10/10 600 м
[Cb cap]
+28.1 +25.1 84 +41 +41 опасность
перегрева
1007.3 1006.2 +34.4 0.0
15 17.08 штиль 0 10 км 9/5 600 м
[Cb calv Ac lent Cs]
+27.1 +25.2 89 +39 +39 очень
душно
1009.6 1008.5
18 17.08 штиль 0 10 км 10/5 600 м
[Sc As op]
+26.5 +24.0 86 +37 +37 очень
душно
1009.4 1008.3
21 17.08 штиль 0 10 км 10/5 600 м
[Sc As op]
+25.6 +24.0 91 +35 +35 очень
душно
1009.0 1007.9
00 18.08 штиль 0 10 км 8/3 600 м
[Cu med, cong Ac As Cs]
+25.5 +24.5 94 +36 +36 очень
душно
1010.1 1009.0 +24.5
03 18.08 штиль 0 10 км 8/3 600 м
[Cu med, cong Ac As Cs]
+31.8 +24.2 64 +44 +53 опасность
перегрева
1011.1 1010.0
06 18.08 З 3 10 км 8/3 600 м
[Cu med, cong Ac As Cs]
+33.0 +23.2 56 +43 +51 опасность
перегрева
1009.4 1008.3
09 18.08 З 2 10 км 10/5 600 м
[Sc As op]
+34.3 +23.6 54 +45 +46 опасность
перегрева
1007.5 1006.4
12 18.08 штиль 0 10 км 10/5 600 м
[Cb cap Ac As]
+31.0 +25.7 73 +46 +46 опасность
перегрева
1008.3 1007.2 +34.8
15 18.08 штиль 0 10 км 8/3 600 м
[Cu med, cong Ac As Cs]
+28.5 +24.9 81 +41 +41 опасность
перегрева
1010.6 1009.5
18 18.08 штиль 0 10 км 3/0
[Ac lent Cs]
+26.5 +24.3 88 +37 +37 очень
душно
1009.5 1008.4
21 18.08 штиль 0 10 км 8/0
[Cs]
+25.9 +24.3 91 +36 +36 очень
душно
1008.3 1007.2

 

Местоположение метеостанции Накхонпатхом (Таиланд): широта 14.02 долгота 99.97 высота над уровнем моря 10 м.

В архиве по умолчанию представлена погода в Накхонпатхоме за последнюю неделю. Архивные данные за месяц целиком и за предыдущие месяцы, начиная с января 2011 года, Вы можете получить, выбрав интересующий диапазон дат из раскрывающегося списка и нажав кнопку "Ввод!".


*Определитесь, кто Вы:
робот инопланетянин человек

Внимание! Время в таблицах - всемирное. Для получения местного времени необходимо прибавить поправку, которая равна 7 ч.

Смотрите также архив погоды в соседних городах и на ближайших метеорологических станциях:

Погода в У-Тхонг Агромете (Таиланд) (33 км)
Погода в Канчанабури (Таиланд) (47 км)
Погода в Суфанбури (Таиланд) (53 км)
Погода в Самутсонгкхраме (Таиланд) (68 км)
Погода в Дон Муанг (Таиланд) (69 км)
Погода в Патхумтхани (Таиланд) (71 км)
Погода в Бангкоке (Таиланд) (71 км)
Погода в Бангкоке 2 (Таиланд) (74 км)
Погода в Бангна Агромете (Таиланд) (80 км)
Погода в Аэропорту Суварнабхуми (Таиланд) (93 км)

Пояснения к столбцам:

Ветер - указаны скорость ветра в м/с - средняя за 10 мин, порывы в срок и между сроками (в фигурных скобках) и направление, откуда дует ветер: С - северный, СВ - северо-восточный, В - восточный, ЮВ - юго-восточный, Ю - южный, ЮЗ - юго-западный, З - западный, СЗ - северо-западный.
Видимость - горизонтальная дальность видимости в метрах или километрах. При видимости от 1 до 10 км при отсутствии осадков обычно наблюдается дымка, при ухудшении видимости до 1 км и менее - туман. В сухую погоду видимость может ухудшаться дымом, пылью или мглою.
Явления - указаны атмосферные явления, наблюдавшиеся в срок или в последний час перед сроком; фигурными скобками обозначены явления, наблюдавшиеся между сроками (за 1-3 часа до срока); квадратными скобками обозначены град или гололедные отложения с указанием их диаметра в мм.
Облачность - указаны через наклонную черту общая и нижняя облачность в баллах и высота нижней границы облаков в метрах; квадратными скобками обозначены формы облаков: Ci - перистые, Cs - перисто-слоистые, Cc - перисто-кучевые, Ac - высококучевые, As - высокослоистые, Sc - слоисто-кучевые, Ns - слоисто-дождевые, Cu - кучевые, Cb - кучево-дождевые. Подробнее классификацию облаков см. в Атласе облаков (PDF).
T - Температура воздуха - температура, измеренная на высоте 2 м над землей.
Td - Температура точки росы - температура, при понижении до которой содержащийся в воздухе водяной пар достигнет насыщения.
f - Относительная влажность воздуха - влажноcть воздуха, измеренная на высоте 2 м над землей.
Te - Эффективная температура - температура, которую ощущает одетый по сезону человек в тени. Характеристика душности погоды. При расчете учитывается влияние влажности воздуха и скорости ветра на теплоощущения человека.
Tes - Эффективная температура на солнце - температура, которую ощущает человек, с поправкой на солнечный нагрев. Характеристика знойности погоды. Зависит от высоты солнца над горизонтом, облачности и скорости ветра. Ночью, в пасмурную погоду, а также при ветре 12 м/с и более поправка равна нулю.
P - Атмосферное давление - приведенное к уровню моря атмосферное давление.
Po - Атмосферное давление - измеренное на уровне метеостанции атмосферное давление.
Tmin - Минимальная температура - минимум температуры воздуха на высоте 2 м над землей.
Tmax - Максимальная температура - максимум температуры воздуха на высоте 2 м над землей.
R - Количество осадков - Количество выпавших осадков за период времени, мм. При наведении курсора мыши на число - период времени, за который выпало указанное количество осадков.
R24 - Количество осадков - Количество выпавших осадков за 24 часа, мм.
S - Снежный покров - Высота снежного покрова, см. При наведении курсора мыши на число - состояние снежного покрова и степень покрытия местности в баллах.